Flag for Canada Weather past 2 weeks in Mount Pearl, Newfoundland and Labrador, Canada

Now
50 °F

Scattered clouds.


Feels Like: 43 °F
Forecast: 43 / 53 °F
Wind: 23 mph from West

Location: St. John's

Current Time: Oct 21, 2014 at 1:21:52 PM

Latest Report: Oct 21, 2014 at 12:30 PM


Visibility: 15 mi

Pressure: 30.04 "Hg

Humidity: 67%

Dew point: 39 °F

Location of Mount PearlLocation

Historic Weather in Mount Pearl — Graph

°F

Mount Pearl temperature yesterday

Maximum temperature yesterday: 63 °F (at 10:30 AM)
Minimum temperature yesterday: 46 °F (at 11:30 PM)
Average temperature yesterday: 57 °F

Past Weeks' High & Low Weather Summary

 TemperatureHumidityPressure
High68 °F (Oct 6, 2:30 PM)100% (Oct 6, 11:30 AM)30.35 "Hg (Oct 6, 11:30 AM)
Low36 °F (Oct 17, 4:30 AM)55% (Oct 10, 1:30 PM)29.11 "Hg (Oct 19, 7:30 AM)
Average52 °F88%29.97 "Hg
* Reported Oct 6 11:30 AM — Oct 21 11:30 AM, Mount Pearl, Weather by CustomWeather, © 2014

Note: Actual official high and low records may vary slightly from our data, if they occured in-between our weather recording intervals... More about our weather records

Advertising

Mount Pearl weather history for previous 24 hours

 ConditionsComfort  
Time TempWeatherWind HumidityBarometerVisibility
11:30 AM
Oct 21
50 °FScattered clouds.28 mph67%30.01 "Hg15 mi
10:30 AM50 °FPassing clouds.18 mph71%30.01 "Hg15 mi
9:30 AM46 °FPassing clouds.24 mph82%29.97 "Hg15 mi
8:30 AM45 °FScattered clouds.17 mph81%29.94 "Hg15 mi
7:30 AM45 °FPassing clouds.22 mph87%29.91 "Hg15 mi
6:34 AM45 °FSprinkles. Passing clouds.20 mph87%29.89 "Hg12 mi
5:30 AM45 °FPassing clouds.26 mph76%29.85 "Hg15 mi
4:30 AM45 °FPassing clouds.23 mph81%29.82 "Hg15 mi
3:30 AM45 °FPassing clouds.24 mph76%29.78 "Hg15 mi
2:30 AM45 °FPassing clouds.23 mph81%29.78 "Hg15 mi
1:30 AM45 °FSprinkles. Overcast.31 mph87%29.76 "Hg12 mi
12:30 AM46 °FPassing clouds.24 mph76%29.74 "Hg15 mi
11:30 PM
Oct 20
46 °FPassing clouds.36 mph82%29.72 "Hg15 mi
10:30 PM48 °FPassing clouds.29 mph76%29.72 "Hg15 mi
9:30 PM48 °FPassing clouds.25 mph76%29.70 "Hg15 mi
8:30 PM48 °FPassing clouds.23 mph82%29.68 "Hg15 mi
7:30 PM48 °FPassing clouds.29 mph82%29.66 "Hg15 mi
6:30 PM50 °FPassing clouds.31 mph82%29.62 "Hg15 mi
5:30 PM52 °FPassing clouds.26 mph82%29.59 "Hg15 mi
4:30 PM55 °FPassing clouds.26 mph77%29.57 "Hg15 mi
3:30 PM57 °FScattered clouds.28 mph77%29.55 "Hg15 mi
2:30 PM59 °FScattered clouds.26 mph82%29.53 "Hg15 mi
1:30 PM61 °FScattered clouds.25 mph88%29.52 "Hg15 mi
Weather by CustomWeather, © 2014

See weather overviewHow to use our weather pages